This demonstration page uses our WeatherBlox Daily Observations layout. Learn more.

Left ArrowRight Arrow

30.21309, -93.2044

Hourly Observations for August 31, 2022

Temp ( °F °C ) Dew Point ( °F °C ) Humidity (%) Winds ( mph kmh ) Pressure ( in mb ) Visibility ( mi km ) Precip ( " mm )
12:15 am 00:15 Clear 76 24.3 70 21.1 82 82 Calm 30.01 1016 10 16 0.00 0.00
12:35 am 00:35 Clear 76 24.6 70 21.2 81 81 Calm 30.01 1016 10 16 0.00 0.00
12:55 am 00:55 Clear 75 23.7 71 21.4 87 87 Calm 30.00 1016 10 16 0.00 0.00
1:15 am 01:15 Clear 75 23.7 71 21.6 88 88 Calm 30.00 1016 10 16 0.00 0.00
1:35 am 01:35 Clear 75 23.7 70 21.3 86 86 NNE 5 7 30.01 1016 10 16 0.00 0.00
1:55 am 01:55 Clear 75 23.7 70 21.3 86 86 E 5 7 30.01 1016 10 16 0.00 0.00
2:15 am 02:15 Clear 74 23.5 70 21.2 87 87 ENE 5 7 30.01 1016 10 16 0.00 0.00
2:35 am 02:35 Clear 74 23.3 70 21.2 88 88 E 3 6 30.02 1017 10 16 0.00 0.00
2:55 am 02:55 Clear 74 23.3 70 21.2 88 88 Calm 30.02 1017 10 16 0.00 0.00
3:15 am 03:15 Clear 74 23.3 70 21.3 89 89 N 3 6 30.01 1016 10 16 0.00 0.00
3:35 am 03:35 Clear 74 23.3 71 21.4 89 89 NW 3 6 30.01 1016 10 16 0.00 0.00
3:55 am 03:55 Clear 74 23.3 71 21.4 89 89 NW 3 6 30.01 1016 10 16 0.00 0.00
4:15 am 04:15 Clear 73 22.9 70 21.2 90 90 NNE 3 6 30.01 1016 10 16 0.00 0.00
4:35 am 04:35 Clear 74 23.1 71 21.5 91 91 Calm 30.01 1016 10 16 0.00 0.00
4:55 am 04:55 Clear 73 22.8 71 21.4 92 92 Calm 30.01 1016 10 16 0.00 0.00
5:15 am 05:15 Clear 73 22.7 71 21.4 92 92 NE 3 6 30.01 1016 10 16 0.00 0.00
5:35 am 05:35 Clear 73 22.7 70 21.2 91 91 NNE 3 6 30.01 1016 10 16 0.00 0.00
6:00 am 06:00 Mostly Clear 73 23 70 21 89 89 NE 7 11 30.01 1016 10 16 0.00 0.00
6:45 am 06:45 Mostly Cloudy 72 22 70 21 94 94 Calm 30.02 1017 10 16 0.00 0.00
7:52 am 07:52 Mostly Cloudy 75 24 72 22 89 89 ENE 3 6 30.04 1017 10 16 0.00 0.00
8:47 am 08:47 Mostly Cloudy 77 25 72 22 83 83 ENE 3 6 30.05 1018 10 16 0.00 0.00
9:46 am 09:46 Mostly Sunny 82 28 73 23 74 74 SE 3 6 30.06 1018 10 16 0.00 0.00
10:50 am 10:50 Mostly Sunny 84 29 73 23 70 70 ENE 5 7 30.07 1018 10 16 0.00 0.00
11:55 am 11:55 Partly Cloudy 88 31 73 23 63 63 ENE 8 13 30.05 1018 10 16 0.00 0.00
12:45 pm 12:45 Partly Cloudy 90 32 75 24 63 63 ENE 8 13 30.04 1017 10 16 0.00 0.00
2:53 pm 14:53 Partly Cloudy 90 32 73 23 59 59 E 9 15 29.99 1016 10 16 0.00 0.00
3:45 pm 15:45 Partly Cloudy 91 33 73 23 56 56 E 7 11 29.97 1015 10 16 0.00 0.00
4:45 pm 16:45 Partly Cloudy 93 34 73 23 53 53 E 7 11 29.95 1014 10 16 0.00 0.00
5:47 pm 17:47 Partly Cloudy 91 33 73 23 56 56 S 3 6 29.95 1014 10 16 0.00 0.00
6:52 pm 18:52 Partly Cloudy 88 31 75 24 66 66 Calm 29.94 1014 10 16 0.00 0.00
7:50 pm 19:50 Partly Cloudy 88 31 73 23 63 63 Calm 29.95 1014 10 16 0.00 0.00
8:50 pm 20:50 Partly Cloudy 82 28 73 23 74 74 Calm 29.96 1014 10 16 0.00 0.00
9:49 pm 21:49 Mostly Clear 82 28 73 23 74 74 Calm 29.98 1015 10 16 0.00 0.00
10:15 pm 22:15 Clear 81 27.4 74 23.3 78 78 NNW 3 6 29.99 1016 10 16 0.00 0.00
10:35 pm 22:35 Clear 81 27.2 74 23.3 79 79 NNW 3 6 29.99 1016 10 16 0.00 0.00
10:55 pm 22:55 Clear 82 27.5 74 23.3 78 78 NNW 3 6 29.99 1016 10 16 0.00 0.00
11:15 pm 23:15 Clear 81 27 74 23.2 80 80 Calm 29.99 1016 10 16 0.00 0.00
11:55 pm 23:55 Clear 80 26.4 74 23.2 83 83 NNE 3 6 29.99 1016 10 16 0.00 0.00

Powered by AerisWeather